Showing default

TJS-25, 69474

Orbit data source: Space-Track

TJS-25, 69474 is a Chinese payload satellite in GEO that was launched on Thu, 11 Jun 2026 UTC via a CHANG ZHENG 5 launch vehicle from the Wenchang Satellite Launch Center (WSC). Payload-class satellites include a variety of spacecraft equipped with specific instruments for various scientific and technological missions. These include communications satellites like Starlink; space stations such as the ISS; scientific satellites like the Hubble; Earth observation satellites from companies like Planet Labs, Umbra, and HawkEye 360; GPS; miniature CubeSats for education and research; and military/defense satellites.

Not visible in the next 10 days
Identifier
69474, 2026-129A
Orbit
GEO
Country
Flag of CNCN / PRC
Related business
Manufacturer
CAST
Mission
Operational spacecraft
Bus & Motor
TJS11, Unknown motor
Mass
~10,000 kg wet, ~6,000 kg dry
Launch date (UTC)
2026-06-11 (1 month ago)
Launch vehicle
CHANG ZHENG 5
Launch site
Wenchang Satellite Launch Center (WSC)
Object type
Payload
Rocket body
Debris
Shape & HBR
Unknown shape, 22.5 m
Radar Cross Section
RCS unknown

Expand to show TLE details & history
Last TLE update: 13 hours ago

TLE from 13 hours ago
0 TJS-25
1 69474U 26129A   26192.80260250 -.00000360  00000-0  00000-0 0  9993
2 69474   5.9573 330.3205 0002706 285.1874  83.3192  1.00273302   315
Epoch: 2026-07-11T19:15Z
TLE epoch observation values (Epoch: 2026-07-11T19:15:44.856Z)
Latitude
0.8701°
Longitude
120.15437°
Altitude
35,784.186 km
Speed
3.075 km/s
True Right ascension
22h 35m 12s
True Declination
0° 52' 09"
Sunlit
Object was in daylight at epoch
Visualization orbit readout
Latitude
Unknown
Longitude
Unknown
Altitude
Unknown
Speed
Unknown
Apparent Right ascension
Unknown
Apparent Declination
Unknown
Sunlit
N/A
Visualization observer readout
Local Sidereal Time
20:56:18
Azimuth
Unknown
Elevation
Unknown
Doppler factor
Unknown
Orbital elements
Apogee altitude
35,798.633 km
Perigee altitude
35,775.813 km
Semi-major axis
42,165.36 km
Eccentricity
0.00027
Inclination
5.9573°
RAAN
330.3205°
Arg. of periapsis
285.1874°
True anomaly
83.35°
Mean anomaly
83.3192°
Eccentric anomaly
83.3346°
Mean motion
0.25067 °/min
Orbital period
1,436.13 mins
BSTAR
0
Loading maneuver chart data...
Computing Atmospheric mass density...
Loading historical data...
Loading historical data...
Loading historical data...
Loading historical data...
Loading historical data...
Loading historical data...
Loading historical data...
Other satellites on launch #129 in the year 2026 (2026-06-11 UTC)

Documentation

Showing up to 5 results
|